DLH5LT ENBR-EDDF

Flight info

Callsign DLH5LT
Flight time 1h 39m
Altitude 41000
Route TUXIL DCT ZOL DCT GREFI DCT SOGPO DCT DIXAT DIXAT1A
Aircraft A359/H-SDE2E3GHIJ3J4J5LM1ORWXY/LB1D1

Departure

Time 2026-04-17 11:45
Airport Bergen Airport, Flesland (ENBR)

Arrival

Time 2026-04-17 13:25
Airport Frankfurt Main Airport (EDDF)
Time Latitude Longitude Altitude Speed Heading
2026-04-17 11:27 60.28838 5.22625 167 ft 0 kts 35°
2026-04-17 11:33 60.28842 5.22632 167 ft 4 kts 35°
2026-04-17 11:33 60.28849 5.22643 167 ft 0 kts 35°
2026-04-17 11:35 60.28842 5.22622 167 ft 2 kts 34°
2026-04-17 11:36 60.28823 5.22603 167 ft 3 kts 12°
2026-04-17 11:36 60.28803 5.22600 167 ft 3 kts 351°
2026-04-17 11:36 60.28784 5.22611 167 ft 3 kts 329°
2026-04-17 11:36 60.28769 5.22636 167 ft 3 kts 308°
2026-04-17 11:37 60.28759 5.22669 166 ft 3 kts 287°
2026-04-17 11:37 60.28759 5.22670 166 ft 0 kts 286°
2026-04-17 11:40 60.28743 5.22602 166 ft 11 kts 231°
2026-04-17 11:41 60.28697 5.22459 166 ft 13 kts 243°
2026-04-17 11:41 60.28722 5.22343 166 ft 10 kts 347°
2026-04-17 11:41 60.28794 5.22322 167 ft 13 kts 351°
2026-04-17 11:41 60.28932 5.22277 168 ft 25 kts 351°
2026-04-17 11:42 60.29111 5.22220 170 ft 27 kts 351°
2026-04-17 11:42 60.29306 5.22156 171 ft 29 kts 350°
2026-04-17 11:42 60.29511 5.22085 173 ft 31 kts 350°
2026-04-17 11:42 60.29736 5.22005 175 ft 33 kts 350°
2026-04-17 11:43 60.29970 5.21925 177 ft 35 kts 351°
2026-04-17 11:43 60.30215 5.21842 179 ft 36 kts 349°
2026-04-17 11:43 60.30469 5.21757 181 ft 33 kts 351°
2026-04-17 11:43 60.30652 5.21646 183 ft 23 kts 305°
2026-04-17 11:44 60.30642 5.21453 186 ft 9 kts 230°
2026-04-17 11:44 60.30584 5.21411 196 ft 10 kts 179°
2026-04-17 11:44 60.30532 5.21418 182 ft 0 kts 173°
2026-04-17 11:44 60.30517 5.21422 182 ft 5 kts 172°
2026-04-17 11:45 60.30322 5.21475 178 ft 58 kts 172°
2026-04-17 11:45 60.29663 5.21707 176 ft 131 kts 169°
2026-04-17 11:45 60.28679 5.22049 767 ft 142 kts 169°
2026-04-17 11:45 60.27717 5.22325 1783 ft 141 kts 171°
2026-04-17 11:46 60.26668 5.22584 2224 ft 162 kts 171°
2026-04-17 11:46 60.25472 5.22990 2569 ft 184 kts 169°
2026-04-17 11:46 60.24163 5.23454 3049 ft 196 kts 169°
2026-04-17 11:46 60.22760 5.23939 3441 ft 218 kts 170°
2026-04-17 11:47 60.21205 5.24468 4014 ft 232 kts 170°
2026-04-17 11:47 60.19588 5.25010 4752 ft 238 kts 170°
2026-04-17 11:47 60.17923 5.25568 5497 ft 243 kts 171°
2026-04-17 11:47 60.16255 5.26124 5964 ft 245 kts 171°
2026-04-17 11:48 60.14539 5.26696 6676 ft 249 kts 171°
2026-04-17 11:48 60.12844 5.27264 7518 ft 250 kts 171°
2026-04-17 11:48 60.11109 5.27838 8325 ft 252 kts 171°
2026-04-17 11:48 60.09365 5.28392 9129 ft 254 kts 172°
2026-04-17 11:49 60.07614 5.28903 9923 ft 257 kts 172°
2026-04-17 11:49 60.05829 5.29405 10549 ft 265 kts 173°
2026-04-17 11:49 60.03929 5.29926 10898 ft 282 kts 173°
2026-04-17 11:49 60.01931 5.30471 11212 ft 298 kts 173°
2026-04-17 11:50 59.99801 5.31043 11512 ft 313 kts 173°
2026-04-17 11:50 59.97623 5.31625 11902 ft 323 kts 173°
2026-04-17 11:50 59.95385 5.32224 12493 ft 326 kts 173°
2026-04-17 11:50 59.93110 5.32830 13099 ft 329 kts 173°
2026-04-17 11:51 59.90829 5.33437 13702 ft 332 kts 173°
2026-04-17 11:51 59.88541 5.34046 14263 ft 334 kts 174°
2026-04-17 11:51 59.86215 5.34662 14776 ft 338 kts 174°
2026-04-17 11:51 59.83880 5.35280 15248 ft 342 kts 174°
2026-04-17 11:52 59.81504 5.35907 15723 ft 346 kts 174°
2026-04-17 11:52 59.79091 5.36456 16207 ft 350 kts 176°
2026-04-17 11:52 59.76676 5.36877 16691 ft 353 kts 176°
2026-04-17 11:52 59.74193 5.37281 17175 ft 357 kts 176°
2026-04-17 11:53 59.71726 5.37682 17652 ft 360 kts 176°
2026-04-17 11:53 59.69197 5.38094 18100 ft 364 kts 177°
2026-04-17 11:53 59.67528 5.38368 18398 ft 367 kts 177°
2026-04-17 11:53 59.64011 5.39004 18981 ft 371 kts 175°
2026-04-17 11:54 59.61463 5.39628 19404 ft 374 kts 174°
2026-04-17 11:54 59.58881 5.40294 19796 ft 377 kts 174°
2026-04-17 11:54 59.56255 5.40967 20191 ft 380 kts 174°
2026-04-17 11:54 59.54515 5.41412 20479 ft 381 kts 174°
2026-04-17 11:55 59.51005 5.42303 21027 ft 384 kts 175°
2026-04-17 11:55 59.49203 5.42759 21291 ft 386 kts 175°
2026-04-17 11:55 59.46557 5.43427 21679 ft 389 kts 175°
2026-04-17 11:55 59.43856 5.44107 22081 ft 391 kts 175°
2026-04-17 11:56 59.41140 5.44792 22487 ft 394 kts 175°
2026-04-17 11:56 59.38412 5.45585 22874 ft 397 kts 173°
2026-04-17 11:56 59.35705 5.46511 23254 ft 399 kts 172°
2026-04-17 11:56 59.32956 5.47529 23658 ft 402 kts 171°
2026-04-17 11:57 59.30209 5.48574 23993 ft 404 kts 171°
2026-04-17 11:57 59.27445 5.49624 24353 ft 406 kts 171°
2026-04-17 11:57 59.24663 5.50668 24712 ft 407 kts 172°
2026-04-17 11:57 59.21851 5.51708 25079 ft 408 kts 172°
2026-04-17 11:58 59.19058 5.52726 25460 ft 410 kts 172°
2026-04-17 11:58 59.16243 5.53744 25841 ft 411 kts 172°
2026-04-17 11:58 59.13454 5.54747 26233 ft 413 kts 172°
2026-04-17 11:58 59.10616 5.55766 26658 ft 415 kts 172°
2026-04-17 11:59 59.07767 5.56787 27089 ft 416 kts 172°
2026-04-17 11:59 59.04899 5.57813 27533 ft 418 kts 171°
2026-04-17 11:59 59.02017 5.58844 27997 ft 421 kts 171°
2026-04-17 11:59 58.99163 5.59863 28460 ft 423 kts 171°
2026-04-17 12:00 58.96248 5.60904 28936 ft 425 kts 171°
2026-04-17 12:00 58.93318 5.61948 29389 ft 428 kts 171°
2026-04-17 12:00 58.90402 5.62986 29866 ft 431 kts 171°
2026-04-17 12:00 58.87417 5.63842 30321 ft 433 kts 176°
2026-04-17 12:01 58.84384 5.64237 30673 ft 436 kts 178°
2026-04-17 12:01 58.81336 5.64505 31010 ft 440 kts 179°
2026-04-17 12:01 58.78250 5.64704 31332 ft 444 kts 180°
2026-04-17 12:01 58.75138 5.64871 31664 ft 447 kts 180°
2026-04-17 12:02 58.72040 5.65029 31992 ft 451 kts 181°
2026-04-17 12:02 58.68893 5.65197 32290 ft 454 kts 181°
2026-04-17 12:02 58.65720 5.65375 32578 ft 458 kts 181°
2026-04-17 12:02 58.62512 5.65564 32882 ft 461 kts 181°
2026-04-17 12:03 58.59329 5.65757 33186 ft 464 kts 181°
2026-04-17 12:03 58.56081 5.65957 33483 ft 466 kts 182°
2026-04-17 12:03 58.52825 5.66161 33895 ft 467 kts 182°
2026-04-17 12:03 58.49567 5.66364 34302 ft 466 kts 182°
2026-04-17 12:04 58.46346 5.66565 34648 ft 467 kts 182°
2026-04-17 12:04 58.43074 5.66766 34953 ft 468 kts 182°
2026-04-17 12:04 58.39857 5.66963 35256 ft 469 kts 182°
2026-04-17 12:04 58.36568 5.67163 35561 ft 469 kts 182°
2026-04-17 12:05 58.33290 5.67361 35863 ft 470 kts 182°
2026-04-17 12:05 58.30017 5.67560 36162 ft 471 kts 182°
2026-04-17 12:05 58.26777 5.67756 36457 ft 472 kts 182°
2026-04-17 12:05 58.23461 5.67956 36744 ft 473 kts 182°
2026-04-17 12:06 58.20164 5.68155 37024 ft 474 kts 182°
2026-04-17 12:06 58.16903 5.68351 37303 ft 474 kts 182°
2026-04-17 12:06 58.13603 5.68550 37589 ft 475 kts 182°
2026-04-17 12:06 58.10296 5.68748 37868 ft 476 kts 182°
2026-04-17 12:07 58.06969 5.68948 38156 ft 476 kts 182°
2026-04-17 12:07 58.03654 5.69146 38418 ft 476 kts 182°
2026-04-17 12:07 58.00362 5.69343 38679 ft 477 kts 182°
2026-04-17 12:07 57.97031 5.69542 38925 ft 477 kts 182°
2026-04-17 12:08 57.93700 5.69740 39110 ft 478 kts 182°
2026-04-17 12:08 57.90363 5.69938 39311 ft 478 kts 182°
2026-04-17 12:08 57.87056 5.70134 39510 ft 479 kts 182°
2026-04-17 12:08 57.83715 5.70331 39701 ft 479 kts 182°
2026-04-17 12:09 57.80409 5.70526 39890 ft 479 kts 181°
2026-04-17 12:09 57.77074 5.70723 40080 ft 479 kts 181°
2026-04-17 12:09 57.73719 5.70920 40259 ft 479 kts 181°
2026-04-17 12:09 57.70418 5.71114 40437 ft 479 kts 181°
2026-04-17 12:10 57.67011 5.71314 40622 ft 479 kts 181°
2026-04-17 12:10 57.63664 5.71509 40792 ft 480 kts 181°
2026-04-17 12:10 57.60316 5.71705 40953 ft 480 kts 181°
2026-04-17 12:10 57.57006 5.71898 41121 ft 480 kts 181°
2026-04-17 12:11 57.50321 5.72286 41227 ft 481 kts 181°
2026-04-17 12:12 57.40292 5.72868 41213 ft 481 kts 181°
2026-04-17 12:12 57.33604 5.73254 41218 ft 481 kts 181°
2026-04-17 12:13 57.26896 5.73638 41215 ft 481 kts 181°
2026-04-17 12:13 57.20221 5.74020 41208 ft 481 kts 181°
2026-04-17 12:14 57.13559 5.74399 41204 ft 481 kts 181°
2026-04-17 12:14 57.06861 5.74779 41203 ft 481 kts 181°
2026-04-17 12:15 57.00161 5.75158 41211 ft 481 kts 181°
2026-04-17 12:15 56.93465 5.75540 41205 ft 481 kts 181°
2026-04-17 12:16 56.86778 5.75793 41208 ft 480 kts 185°
2026-04-17 12:16 56.80099 5.75830 41209 ft 480 kts 185°
2026-04-17 12:17 56.73445 5.76041 41205 ft 481 kts 184°
2026-04-17 12:17 56.66761 5.76386 41206 ft 481 kts 184°
2026-04-17 12:18 56.60029 5.76771 41202 ft 481 kts 184°
2026-04-17 12:18 56.53359 5.77151 41203 ft 481 kts 184°
2026-04-17 12:19 56.46672 5.77524 41203 ft 481 kts 184°
2026-04-17 12:19 56.39969 5.77893 41206 ft 481 kts 184°
2026-04-17 12:20 56.33301 5.78256 41201 ft 481 kts 184°
2026-04-17 12:20 56.26621 5.78620 41203 ft 481 kts 184°
2026-04-17 12:21 56.19904 5.78987 41205 ft 482 kts 184°
2026-04-17 12:21 56.13211 5.79351 41204 ft 482 kts 184°
2026-04-17 12:22 56.06495 5.79712 41204 ft 482 kts 184°
2026-04-17 12:22 55.99820 5.80071 41205 ft 482 kts 184°
2026-04-17 12:23 55.93102 5.80431 41213 ft 482 kts 184°
2026-04-17 12:23 55.86425 5.80788 41211 ft 482 kts 184°
2026-04-17 12:24 55.79737 5.81144 41210 ft 482 kts 184°
2026-04-17 12:24 55.73040 5.81499 41211 ft 482 kts 184°
2026-04-17 12:25 55.66311 5.81855 41210 ft 482 kts 184°
2026-04-17 12:25 55.59585 5.82211 41211 ft 482 kts 184°
2026-04-17 12:26 55.52910 5.82560 41208 ft 482 kts 184°
2026-04-17 12:26 55.46155 5.82913 41213 ft 483 kts 184°
2026-04-17 12:27 55.39463 5.83260 41213 ft 483 kts 184°
2026-04-17 12:27 55.32733 5.83609 41212 ft 483 kts 184°
2026-04-17 12:28 55.26017 5.83957 41213 ft 483 kts 184°
2026-04-17 12:28 55.19283 5.84304 41216 ft 483 kts 184°
2026-04-17 12:29 55.12558 5.84650 41213 ft 483 kts 184°
2026-04-17 12:29 55.05759 5.84999 41213 ft 484 kts 184°
2026-04-17 12:30 54.99018 5.85384 41216 ft 485 kts 182°
2026-04-17 12:30 54.92280 5.86221 41222 ft 486 kts 181°
2026-04-17 12:31 54.85554 5.87237 41217 ft 486 kts 181°
2026-04-17 12:31 54.78836 5.88223 41216 ft 486 kts 181°
2026-04-17 12:32 54.73221 5.89012 41221 ft 486 kts 181°
2026-04-17 12:32 54.65394 5.90087 41221 ft 486 kts 181°
2026-04-17 12:33 54.59771 5.90857 41227 ft 486 kts 181°
2026-04-17 12:33 54.53011 5.91780 41228 ft 487 kts 181°
2026-04-17 12:34 54.46275 5.92698 41227 ft 487 kts 181°
2026-04-17 12:34 54.39515 5.93616 41223 ft 487 kts 181°
2026-04-17 12:35 54.32733 5.94534 41227 ft 487 kts 181°
2026-04-17 12:35 54.25995 5.95444 41226 ft 487 kts 181°
2026-04-17 12:37 53.98965 5.99062 41229 ft 488 kts 181°
2026-04-17 12:38 53.92149 5.99966 41222 ft 489 kts 181°
2026-04-17 12:38 53.85398 6.00860 41226 ft 489 kts 181°
2026-04-17 12:39 53.78607 6.01755 41224 ft 489 kts 181°
2026-04-17 12:39 53.71815 6.02648 41223 ft 490 kts 181°
2026-04-17 12:40 53.65039 6.03536 41224 ft 490 kts 181°
2026-04-17 12:40 53.58236 6.04424 41220 ft 490 kts 181°
2026-04-17 12:41 53.51419 6.05310 41220 ft 490 kts 181°
2026-04-17 12:41 53.44610 6.06194 41216 ft 490 kts 181°
2026-04-17 12:42 53.37795 6.07076 41211 ft 491 kts 181°
2026-04-17 12:42 53.31028 6.07950 41208 ft 491 kts 181°
2026-04-17 12:43 53.24185 6.08830 41207 ft 491 kts 181°
2026-04-17 12:43 53.17381 6.09701 41203 ft 491 kts 181°
2026-04-17 12:44 53.10579 6.10570 41206 ft 491 kts 181°
2026-04-17 12:44 53.03780 6.11438 41200 ft 491 kts 181°
2026-04-17 12:45 52.96946 6.12308 41197 ft 492 kts 181°
2026-04-17 12:45 52.90112 6.13172 41194 ft 492 kts 181°
2026-04-17 12:46 52.83285 6.14031 41210 ft 492 kts 181°
2026-04-17 12:46 52.76480 6.14885 41188 ft 492 kts 181°
2026-04-17 12:47 52.69643 6.15741 41201 ft 492 kts 181°
2026-04-17 12:47 52.62798 6.16596 41191 ft 492 kts 181°
2026-04-17 12:48 52.55911 6.17455 41198 ft 492 kts 181°
2026-04-17 12:48 52.49060 6.18305 41201 ft 493 kts 181°
2026-04-17 12:49 52.42218 6.19152 41189 ft 493 kts 181°
2026-04-17 12:49 52.35369 6.19998 41198 ft 493 kts 181°
2026-04-17 12:50 52.28506 6.20844 41200 ft 493 kts 181°
2026-04-17 12:50 52.21678 6.21683 41200 ft 493 kts 181°
2026-04-17 12:51 52.14844 6.22520 41203 ft 493 kts 181°
2026-04-17 12:51 52.07965 6.23358 41206 ft 494 kts 181°
2026-04-17 12:52 52.01124 6.24420 41195 ft 498 kts 175°
2026-04-17 12:52 51.94499 6.28060 41199 ft 508 kts 156°
2026-04-17 12:53 51.88770 6.34772 41207 ft 511 kts 144°
2026-04-17 12:53 51.83305 6.42101 41201 ft 509 kts 144°
2026-04-17 12:54 51.77756 6.49397 41202 ft 509 kts 145°
2026-04-17 12:54 51.75059 6.52910 41032 ft 509 kts 145°
2026-04-17 12:54 51.72164 6.56667 40773 ft 509 kts 145°
2026-04-17 12:54 51.69417 6.60222 40530 ft 510 kts 145°
2026-04-17 12:55 51.66621 6.63833 40288 ft 511 kts 145°
2026-04-17 12:55 51.63833 6.67426 40045 ft 512 kts 145°
2026-04-17 12:55 51.61061 6.70992 39816 ft 513 kts 145°
2026-04-17 12:55 51.58270 6.74576 39579 ft 513 kts 145°
2026-04-17 12:56 51.55492 6.78136 39338 ft 514 kts 145°
2026-04-17 12:56 51.52684 6.81731 39136 ft 515 kts 145°
2026-04-17 12:56 51.49884 6.85308 38906 ft 515 kts 145°
2026-04-17 12:56 51.47070 6.88897 38490 ft 514 kts 145°
2026-04-17 12:57 51.44258 6.92477 37772 ft 513 kts 145°
2026-04-17 12:57 51.41465 6.96029 37028 ft 514 kts 145°
2026-04-17 12:57 51.38657 6.99590 36259 ft 515 kts 145°
2026-04-17 12:57 51.35824 7.03176 35458 ft 517 kts 145°
2026-04-17 12:58 51.33006 7.06737 34617 ft 519 kts 145°
2026-04-17 12:58 51.30164 7.10326 33654 ft 522 kts 145°
2026-04-17 12:58 51.27257 7.13863 32664 ft 522 kts 149°
2026-04-17 12:58 51.24390 7.16600 31789 ft 520 kts 154°
2026-04-17 12:59 51.21154 7.19327 30789 ft 522 kts 155°
2026-04-17 12:59 51.17949 7.21955 29775 ft 522 kts 155°
2026-04-17 12:59 51.14720 7.24559 28819 ft 520 kts 155°
2026-04-17 12:59 51.11475 7.27163 27996 ft 515 kts 155°
2026-04-17 13:00 51.08309 7.29767 27277 ft 509 kts 154°
2026-04-17 13:00 51.05197 7.32346 26455 ft 491 kts 154°
2026-04-17 13:00 51.02268 7.34775 25619 ft 477 kts 155°
2026-04-17 13:00 50.99332 7.37196 24949 ft 481 kts 155°
2026-04-17 13:01 50.96346 7.39653 24445 ft 478 kts 155°
2026-04-17 13:01 50.93408 7.42069 23748 ft 473 kts 155°
2026-04-17 13:01 50.90504 7.44450 22915 ft 470 kts 155°
2026-04-17 13:01 50.87607 7.46823 22198 ft 464 kts 155°
2026-04-17 13:02 50.84765 7.49147 21562 ft 456 kts 155°
2026-04-17 13:02 50.82893 7.50677 21140 ft 452 kts 155°
2026-04-17 13:02 50.80161 7.52906 20526 ft 445 kts 155°
2026-04-17 13:02 50.77338 7.55206 19898 ft 440 kts 155°
2026-04-17 13:03 50.74659 7.57386 19297 ft 436 kts 155°
2026-04-17 13:03 50.71939 7.59594 18692 ft 433 kts 155°
2026-04-17 13:03 50.69276 7.61754 18054 ft 429 kts 155°
2026-04-17 13:03 50.66656 7.63877 17532 ft 424 kts 155°
2026-04-17 13:04 50.64038 7.65995 17019 ft 421 kts 155°
2026-04-17 13:04 50.61423 7.68109 16510 ft 418 kts 155°
2026-04-17 13:04 50.58833 7.70203 16003 ft 414 kts 155°
2026-04-17 13:04 50.56292 7.72251 15547 ft 411 kts 155°
2026-04-17 13:05 50.53753 7.74293 15087 ft 408 kts 155°
2026-04-17 13:05 50.51236 7.76314 14616 ft 405 kts 155°
2026-04-17 13:05 50.48745 7.78314 14171 ft 403 kts 154°
2026-04-17 13:05 50.46244 7.80319 13675 ft 400 kts 154°
2026-04-17 13:06 50.43806 7.82357 13194 ft 398 kts 150°
2026-04-17 13:06 50.41561 7.84860 12864 ft 393 kts 143°
2026-04-17 13:06 50.39461 7.87463 12640 ft 377 kts 142°
2026-04-17 13:06 50.37478 7.89947 12363 ft 346 kts 142°
2026-04-17 13:07 50.35672 7.92206 12027 ft 318 kts 143°
2026-04-17 13:07 50.34049 7.94345 11738 ft 301 kts 135°
2026-04-17 13:07 50.32916 7.97100 11462 ft 302 kts 112°
2026-04-17 13:07 50.32314 8.00239 11170 ft 302 kts 104°
2026-04-17 13:08 50.31840 8.03409 10747 ft 300 kts 103°
2026-04-17 13:08 50.31377 8.06609 10345 ft 297 kts 103°
2026-04-17 13:08 50.30919 8.09747 10215 ft 296 kts 103°
2026-04-17 13:08 50.30460 8.12876 10158 ft 295 kts 103°
2026-04-17 13:09 50.29990 8.16073 9589 ft 308 kts 103°
2026-04-17 13:09 50.29711 8.17978 9261 ft 310 kts 103°
2026-04-17 13:09 50.29250 8.21162 8839 ft 292 kts 103°
2026-04-17 13:09 50.28821 8.24182 8363 ft 283 kts 103°
2026-04-17 13:10 50.28390 8.27231 8210 ft 286 kts 103°
2026-04-17 13:10 50.27962 8.30283 8196 ft 283 kts 103°
2026-04-17 13:10 50.27538 8.33301 8201 ft 283 kts 103°
2026-04-17 13:10 50.27117 8.36286 8201 ft 283 kts 103°
2026-04-17 13:11 50.26688 8.39315 8202 ft 283 kts 103°
2026-04-17 13:11 50.26305 8.42018 8201 ft 283 kts 103°
2026-04-17 13:11 50.25877 8.45032 8204 ft 283 kts 103°
2026-04-17 13:11 50.25449 8.48041 8202 ft 283 kts 103°
2026-04-17 13:12 50.25030 8.50998 8057 ft 272 kts 103°
2026-04-17 13:12 50.24265 8.56451 7311 ft 246 kts 103°
2026-04-17 13:12 50.23989 8.58435 7203 ft 246 kts 103°
2026-04-17 13:13 50.23712 8.60426 7187 ft 247 kts 103°
2026-04-17 13:13 50.23349 8.63045 7193 ft 246 kts 104°
2026-04-17 13:13 50.22993 8.65648 7190 ft 246 kts 104°
2026-04-17 13:13 50.22637 8.68254 6973 ft 241 kts 104°
2026-04-17 13:14 50.22293 8.70782 6378 ft 241 kts 104°
2026-04-17 13:14 50.21941 8.73358 5761 ft 241 kts 104°
2026-04-17 13:14 50.21591 8.75910 5256 ft 240 kts 104°
2026-04-17 13:14 50.21236 8.78470 5036 ft 240 kts 104°
2026-04-17 13:15 50.20878 8.81036 4993 ft 241 kts 103°
2026-04-17 13:15 50.20526 8.83565 5003 ft 240 kts 104°
2026-04-17 13:15 50.20418 8.86174 5006 ft 242 kts 84°
2026-04-17 13:15 50.20792 8.88714 4997 ft 242 kts 75°
2026-04-17 13:16 50.21273 8.91227 5007 ft 245 kts 73°
2026-04-17 13:16 50.21770 8.93772 5004 ft 243 kts 73°
2026-04-17 13:16 50.22042 8.96356 4995 ft 241 kts 95°
2026-04-17 13:16 50.21543 8.98787 5006 ft 238 kts 124°
2026-04-17 13:17 50.20341 9.00531 5003 ft 235 kts 153°
2026-04-17 13:17 50.18771 9.01095 5002 ft 233 kts 182°
2026-04-17 13:17 50.17238 9.00368 5010 ft 231 kts 211°
2026-04-17 13:17 50.16013 8.98796 5007 ft 231 kts 227°
2026-04-17 13:18 50.15067 8.96763 4994 ft 227 kts 240°
2026-04-17 13:18 50.14416 8.94608 4988 ft 213 kts 247°
2026-04-17 13:18 50.13909 8.92511 5019 ft 200 kts 249°
2026-04-17 13:18 50.13423 8.90456 5004 ft 199 kts 249°
2026-04-17 13:19 50.12948 8.88470 5014 ft 200 kts 249°
2026-04-17 13:19 50.12463 8.86442 4994 ft 199 kts 249°
2026-04-17 13:19 50.11953 8.84299 4871 ft 223 kts 249°
2026-04-17 13:19 50.11411 8.82014 4496 ft 218 kts 249°
2026-04-17 13:20 50.10903 8.79872 4200 ft 207 kts 249°
2026-04-17 13:20 50.10423 8.77865 3849 ft 191 kts 249°
2026-04-17 13:20 50.09977 8.75991 3574 ft 174 kts 249°
2026-04-17 13:20 50.09575 8.74296 3327 ft 159 kts 249°
2026-04-17 13:21 50.09203 8.72732 3113 ft 148 kts 249°
2026-04-17 13:21 50.08852 8.71262 2910 ft 143 kts 249°
2026-04-17 13:21 50.08512 8.69835 2726 ft 137 kts 248°
2026-04-17 13:21 50.08176 8.68454 2513 ft 136 kts 249°
2026-04-17 13:22 50.07845 8.67049 2322 ft 136 kts 248°
2026-04-17 13:22 50.07515 8.65663 2145 ft 136 kts 247°
2026-04-17 13:22 50.07187 8.64296 1948 ft 136 kts 249°
2026-04-17 13:22 50.06858 8.62907 1740 ft 135 kts 249°
2026-04-17 13:23 50.06536 8.61552 1539 ft 136 kts 249°
2026-04-17 13:23 50.06206 8.60165 1320 ft 138 kts 250°
2026-04-17 13:23 50.05894 8.58787 1099 ft 132 kts 251°
2026-04-17 13:23 50.05560 8.57416 921 ft 133 kts 249°
2026-04-17 13:24 50.05233 8.56072 735 ft 133 kts 251°
2026-04-17 13:24 50.04917 8.54704 580 ft 137 kts 250°
2026-04-17 13:24 50.04572 8.53316 394 ft 136 kts 250°
2026-04-17 13:24 50.04263 8.52018 359 ft 110 kts 250°
2026-04-17 13:25 50.04082 8.51270 360 ft 57 kts 245°
2026-04-17 13:25 50.03972 8.51020 359 ft 22 kts 228°
2026-04-17 13:25 50.03854 8.50859 361 ft 19 kts 208°
2026-04-17 13:25 50.03789 8.50874 356 ft 6 kts 133°
2026-04-17 13:26 50.03748 8.50975 358 ft 14 kts 121°
2026-04-17 13:26 50.03700 8.51120 355 ft 16 kts 116°
2026-04-17 13:26 50.03647 8.51290 359 ft 18 kts 114°
2026-04-17 13:26 50.03589 8.51480 362 ft 21 kts 115°
2026-04-17 13:27 50.03527 8.51680 357 ft 19 kts 114°
2026-04-17 13:27 50.03515 8.51772 354 ft 0 kts 91°
2026-04-17 13:27 50.03515 8.51842 354 ft 12 kts 87°
2026-04-17 13:28 50.03525 8.51982 354 ft 14 kts 83°
2026-04-17 13:28 50.03536 8.52130 361 ft 11 kts 83°
2026-04-17 13:28 50.03546 8.52249 358 ft 11 kts 82°
2026-04-17 13:28 50.03536 8.52318 357 ft 4 kts 125°
2026-04-17 13:29 50.03512 8.52376 360 ft 8 kts 119°
2026-04-17 13:29 50.03502 8.52463 356 ft 8 kts 85°
2026-04-17 13:29 50.03506 8.52533 359 ft 11 kts 85°
2026-04-17 13:29 50.03524 8.52716 359 ft 15 kts 72°
2026-04-17 13:30 50.03548 8.52822 359 ft 17 kts 70°
2026-04-17 13:30 50.03588 8.52989 356 ft 17 kts 69°
2026-04-17 13:30 50.03634 8.53182 355 ft 20 kts 69°
2026-04-17 13:30 50.03684 8.53388 362 ft 19 kts 69°
2026-04-17 13:31 50.03706 8.53481 354 ft 0 kts 84°
2026-04-17 13:31 50.03706 8.53489 355 ft 6 kts 85°
2026-04-17 13:31 50.03690 8.53552 362 ft 7 kts 115°
2026-04-17 13:32 50.03669 8.53577 359 ft 3 kts 168°
2026-04-17 13:32 50.03581 8.53526 359 ft 33 kts 204°
2026-04-17 13:32 50.03469 8.53520 362 ft 4 kts 117°
2026-04-17 13:32 50.03477 8.53554 362 ft 11 kts 72°
2026-04-17 13:33 50.03533 8.53799 360 ft 25 kts 70°
2026-04-17 13:33 50.03594 8.54064 359 ft 27 kts 70°
2026-04-17 13:33 50.03650 8.54288 360 ft 22 kts 69°
2026-04-17 13:33 50.03692 8.54461 356 ft 0 kts 69°
2026-04-17 13:34 50.03706 8.54516 355 ft 20 kts 69°
2026-04-17 13:34 50.03743 8.54672 360 ft 14 kts 70°
2026-04-17 13:34 50.03761 8.54749 357 ft 8 kts 69°
2026-04-17 13:34 50.03787 8.54857 357 ft 12 kts 69°
2026-04-17 13:35 50.03825 8.55013 362 ft 20 kts 69°
2026-04-17 13:35 50.03878 8.55230 360 ft 23 kts 69°
2026-04-17 13:35 50.03936 8.55475 359 ft 25 kts 70°
2026-04-17 13:35 50.04001 8.55744 362 ft 27 kts 69°
2026-04-17 13:36 50.04055 8.55973 360 ft 23 kts 69°
2026-04-17 13:36 50.04113 8.56217 359 ft 25 kts 70°
2026-04-17 13:36 50.04177 8.56486 359 ft 27 kts 69°
2026-04-17 13:36 50.04223 8.56678 359 ft 16 kts 70°
2026-04-17 13:37 50.04281 8.56797 359 ft 13 kts 31°
2026-04-17 13:37 50.04359 8.56830 358 ft 10 kts 12°
2026-04-17 13:37 50.04432 8.56854 356 ft 11 kts 12°
2026-04-17 13:37 50.04457 8.56882 359 ft 4 kts 57°
2026-04-17 13:38 50.04472 8.56933 362 ft 7 kts 64°
2026-04-17 13:38 50.04496 8.57013 359 ft 10 kts 65°
2026-04-17 13:38 50.04527 8.57128 357 ft 13 kts 68°
2026-04-17 13:38 50.04562 8.57278 360 ft 16 kts 72°
2026-04-17 13:39 50.04596 8.57379 362 ft 2 kts 13°
2026-04-17 13:39 50.04604 8.57368 360 ft 5 kts 318°
2026-04-17 13:39 50.04635 8.57293 353 ft 8 kts 300°